Location: Newark
(44.2003°N, 3.2583°E)
Time: 22:02:01
(UTC+00:00)

X-37B - Visible Passes

Search period start: 20 September 2020 00:00
Search period end: 30 September 2020 00:00
Orbit: 386 x 387 km, 45.0° (Epoch: 18 September)

Date Brightness Start Highest point End Pass type
(mag) Time Alt. Az. Time Alt. Az. Time Alt. Az.
20 Sep 3.1 03:05:33 22° E 03:05:33 22° E 03:06:52 10° E visible
20 Sep 0.5 04:37:50 15° W 04:40:22 75° SSW 04:43:33 10° ESE visible
21 Sep 0.7 03:42:02 73° E 03:42:02 73° E 03:44:58 10° E visible
22 Sep 4.1 02:46:20 10° E 02:46:20 10° E 02:46:21 10° E visible
22 Sep 0.8 04:18:37 32° W 04:19:46 51° SSW 04:22:52 10° SE visible
23 Sep 2.7 03:23:00 24° ESE 03:23:00 24° ESE 03:24:24 10° ESE visible
23 Sep 2.2 04:55:19 11° W 04:57:33 20° SSW 04:59:59 10° SSE visible
24 Sep 1.8 03:59:50 29° S 03:59:50 29° S 04:02:00 10° SE visible
25 Sep 2.8 04:36:50 12° SW 04:36:50 12° SW 04:38:05 10° SSW visible
